Location: �mondeville
(49.4591°N, 1.3431°W)
Time: 05:56:44
(UTC+00:00)

NOSS 3-4 (C) - Pass Details

Date: 22 October 2019
Orbit: 908 x 1304 km, 63.4° (Epoch: 10 November)

Event Time Altitude Azimuth Distance (km) Brightness Sun altitude
Exits shadow 03:43:00 50° 169° (SSE) 1,174 3.8 -28.7°
Maximum altitude 03:44:12 60° 124° (SE) 1,075 3.8 -28.5°
Drops below altitude 10° 03:50:28 10° 47° (NE) 2,764 6.6 -27.5°
Sets 03:53:12 0° 44° (NE) 3,771 7.5 -27.1°
